Weather History for Palma De Mallorca / Son San Juan, Spain

Change the Weather History Date:

Sunday, March 24, 2013

  Actual Average Record
Temperature  
Mean Temperature 58 °F -  
Max Temperature 66 °F 65 °F - ()
Min Temperature 50 °F 45 °F - ()
Degree Days  
Heating Degree Days 7    
Growing Degree Days 8 (Base 50)    
Moisture  
Dew Point 50 °F    
Average Humidity 77    
Maximum Humidity 100    
Minimum Humidity 45    
Precipitation  
Precipitation 0.00 in 0.05 in - ()
Sea Level Pressure  
Sea Level Pressure 29.54 in    
Wind  
Wind Speed 4 mph ()    
Max Wind Speed 16 mph    
Max Gust Speed 23 mph    
Visibility 7.0 miles    
Events Rain    
T = Trace of Precipitation, MM = Missing Value Source: Averaged Metar Reports

Daily Weather History Graph

Daily Weather History Graph

Search for Another Location

Airport:

Trip Planner

Search our weather history database for the weather conditions in past years. The results will help you decide how hot, cold, wet, or windy it might be!

Date:

Astronomy

Mar. 24, 2013 Rise Set
Actual Time 6:46 AM CET 7:05 PM CET
Civil Twilight 6:19 AM CET 7:32 PM CET
Nautical Twilight 5:47 AM CET 8:03 PM CET
Astronomical Twilight 5:15 AM CET 8:35 PM CET
Moon 4:17 PM CET (3/24) 4:47 AM CET (3/24)
Length of Visible Light 13h 12m
Length of Day
12h 19m
Waxing Gibbous, 90% of the Moon is Illuminated
Mar 24
Waxing Gibbous
Mar 27
Full
Apr 3
Last Quarter
Apr 10
New
Apr 18
First Quarter

Hourly Weather History & Observations

Time (CET) Temp. Dew Point Humidity Pressure Visibility Wind Dir Wind Speed Gust Speed Precip Events Conditions
12:00 AM 57.2 °F 51.8 °F 82% 29.59 in 6.2 mi Calm Calm - N/A   Partly Cloudy
12:30 AM 57.2 °F 53.6 °F 88% 29.59 in 6.2 mi South 1.2 mph - N/A   Light Drizzle
1:00 AM 55 °F 50 °F 78% 29.55 in 9 mi West 3.5 mph - - Rain Light Drizzle
1:00 AM 55.4 °F 53.6 °F 94% 29.59 in 6.2 mi WSW 3.5 mph - N/A   Light Drizzle
1:30 AM 55.4 °F 51.8 °F 88% 29.56 in 6.2 mi Calm Calm - N/A   Partly Cloudy
2:00 AM 55.4 °F 51.8 °F 88% 29.56 in 6.2 mi NNE 1.2 mph - N/A   Partly Cloudy
2:30 AM 53.6 °F 51.8 °F 94% 29.56 in 6.2 mi Calm Calm - N/A   Scattered Clouds
3:00 AM 53.6 °F 51.8 °F 94% 29.53 in 6.2 mi Calm Calm - N/A   Partly Cloudy
3:30 AM 53.6 °F 51.8 °F 94% 29.53 in 6.2 mi Calm Calm - N/A   Scattered Clouds
4:00 AM 53.6 °F 51.8 °F 94% 29.53 in 6.2 mi SSE 1.2 mph - N/A   Scattered Clouds
4:30 AM 51.8 °F 51.8 °F 100% 29.53 in 6.2 mi Calm Calm - N/A   Partly Cloudy
5:00 AM 55.4 °F 53.6 °F 94% 29.53 in 6.2 mi South 3.5 mph - N/A   Partly Cloudy
5:30 AM 55.4 °F 53.6 °F 94% 29.53 in 6.2 mi South 2.3 mph - N/A   Partly Cloudy
6:00 AM 55.4 °F 53.6 °F 94% 29.53 in 6.2 mi SW 3.5 mph - N/A   Partly Cloudy
6:30 AM 55.4 °F 51.8 °F 88% 29.53 in 6.2 mi WSW 6.9 mph - N/A   Partly Cloudy
7:00 AM 53 °F 50 °F 87% 29.49 in 16 mi West 4.6 mph - -   Partly Cloudy
7:00 AM 55.4 °F 51.8 °F 88% 29.53 in 6.2 mi West 6.9 mph - N/A   Partly Cloudy
7:30 AM 55.4 °F 51.8 °F 88% 29.53 in 6.2 mi West 3.5 mph - N/A   Scattered Clouds
8:00 AM 53.6 °F 51.8 °F 94% 29.53 in 6.2 mi Variable 1.2 mph - N/A   Partly Cloudy
8:30 AM 55.4 °F 51.8 °F 88% 29.53 in 6.2 mi Variable 1.2 mph - N/A   Partly Cloudy
9:00 AM 57.2 °F 53.6 °F 88% 29.53 in 6.2 mi Calm Calm - N/A   Partly Cloudy
9:30 AM 59.0 °F 53.6 °F 82% 29.53 in 6.2 mi WSW 2.3 mph - N/A   Partly Cloudy
10:00 AM 59.0 °F 53.6 °F 82% 29.53 in 6.2 mi WSW 5.8 mph - N/A   Scattered Clouds
10:30 AM 59.0 °F 51.8 °F 77% 29.53 in 6.2 mi WSW 6.9 mph - N/A   Scattered Clouds
11:00 AM 59.0 °F 51.8 °F 77% 29.53 in 6.2 mi SW 8.1 mph - N/A   Scattered Clouds
11:30 AM 60.8 °F 53.6 °F 77% 29.53 in 6.2 mi SW 9.2 mph - N/A   Scattered Clouds
12:00 PM 60.8 °F 51.8 °F 72% 29.53 in 6.2 mi SW 9.2 mph - N/A   Scattered Clouds
12:30 PM 64.4 °F 53.6 °F 68% 29.53 in 6.2 mi SW 11.5 mph - N/A   Scattered Clouds
1:00 PM 63 °F 50 °F 53% 29.48 in 19 mi SW 12.7 mph - -   Partly Cloudy
1:30 PM 62.6 °F 53.6 °F 72% 29.53 in 6.2 mi SW 12.7 mph - N/A   Scattered Clouds
2:00 PM 64.4 °F 51.8 °F 64% 29.50 in 6.2 mi SW 13.8 mph - N/A   Partly Cloudy
2:30 PM 64.4 °F 51.8 °F 64% 29.50 in 6.2 mi WSW 12.7 mph - N/A   Partly Cloudy
3:00 PM 66.2 °F 44.6 °F 46% 29.50 in 6.2 mi WSW 11.5 mph 23.0 mph N/A   Partly Cloudy
3:30 PM 66.2 °F 44.6 °F 46% 29.50 in 6.2 mi NW 13.8 mph - N/A   Partly Cloudy
4:00 PM 66.2 °F 44.6 °F 46% 29.50 in 6.2 mi NNW 16.1 mph - N/A   Partly Cloudy
4:30 PM 64.4 °F 48.2 °F 56% 29.50 in 6.2 mi NNW 15.0 mph - N/A   Partly Cloudy
5:00 PM 64.4 °F 46.4 °F 52% 29.53 in 6.2 mi NNW 13.8 mph - N/A   Partly Cloudy
5:30 PM 62.6 °F 48.2 °F 59% 29.53 in 6.2 mi NNW 12.7 mph - N/A   Partly Cloudy
6:00 PM 60.8 °F 48.2 °F 63% 29.53 in 6.2 mi NNW 9.2 mph - N/A   Partly Cloudy
6:30 PM 60.8 °F 46.4 °F 59% 29.56 in 6.2 mi Variable 2.3 mph - N/A   Partly Cloudy
7:00 PM 60 °F 44 °F 45% 29.52 in 19 mi North 1.2 mph - -   Scattered Clouds
7:00 PM 60.8 °F 48.2 °F 63% 29.56 in 6.2 mi Variable 1.2 mph - N/A   Partly Cloudy
7:30 PM 59.0 °F 48.2 °F 67% 29.56 in 6.2 mi Variable 1.2 mph - N/A   Partly Cloudy
8:00 PM 57.2 °F 50.0 °F 77% 29.59 in 6.2 mi West 9.2 mph - N/A   Partly Cloudy
9:00 PM 55.4 °F 48.2 °F 77% 29.59 in 6.2 mi NW 4.6 mph - N/A   Partly Cloudy
9:30 PM 53.6 °F 46.4 °F 77% 29.59 in 6.2 mi Calm Calm - N/A   Partly Cloudy
10:00 PM 55.4 °F 48.2 °F 77% 29.62 in 6.2 mi Calm Calm - N/A   Partly Cloudy
10:30 PM 51.8 °F 46.4 °F 82% 29.62 in 6.2 mi Variable 2.3 mph - N/A   Partly Cloudy
11:00 PM 55.4 °F 50.0 °F 82% 29.62 in 6.2 mi SSE 3.5 mph - N/A   Partly Cloudy
11:30 PM 51.8 °F 48.2 °F 88% 29.62 in 6.2 mi NNE 1.2 mph - N/A   Partly Cloudy